| time (UTC) | temp F | wind direction | speed knots | gust knots | rain 1hr in | rain 24hr in | rain mn in | humidity % | barometer mb |
| 20260503005734 | 60 | 170 | 0.9 | 1.7 | 0.00 | 0.00 | 0.00 | 41 | 1009.7 |
| 20260503005231 | 60 | 183 | 0.9 | 1.7 | 0.00 | 0.00 | 0.00 | 40 | 1009.8 |
| 20260503004727 | 60 | 241 | 1.7 | 2.6 | 0.00 | 0.00 | 0.00 | 41 | 1009.8 |
| 20260503004226 | 60 | 192 | 1.7 | 1.7 | 0.00 | 0.00 | 0.00 | 40 | 1009.9 |
| 20260503003723 | 60 | 212 | 2.6 | 2.6 | 0.00 | 0.00 | 0.00 | 40 | 1009.9 |
| 20260503003220 | 60 | 192 | 1.7 | 2.6 | 0.00 | 0.00 | 0.00 | 39 | 1009.9 |
| 20260503002716 | 60 | 209 | 0.9 | 2.6 | 0.00 | 0.00 | 0.00 | 40 | 1009.9 |
| 20260503002213 | 60 | 237 | 1.7 | 3.5 | 0.00 | 0.00 | 0.00 | 41 | 1010.0 |
| 20260503001709 | 60 | 249 | 1.7 | 2.6 | 0.00 | 0.00 | 0.00 | 39 | 1010.4 |
| 20260503001206 | 60 | 179 | 2.6 | 3.5 | 0.00 | 0.00 | 0.00 | 39 | 1010.3 |
| 20260503000704 | 60 | 212 | 2.6 | 3.5 | 0.00 | 0.00 | 0.00 | 38 | 1010.3 |
| 20260503000203 | 60 | 234 | 1.7 | 3.5 | 0.00 | 0.00 | 0.00 | 40 | 1010.5 |
| 20260502235657 | 60 | 198 | 1.7 | 2.6 | 0.00 | 0.00 | 0.00 | 39 | 1010.3 |
| 20260502235155 | 60 | 170 | 0.9 | 2.6 | 0.00 | 0.00 | 0.00 | 38 | 1010.5 |
| 20260502234651 | 60 | 181 | 0.9 | 2.6 | 0.00 | 0.00 | 0.00 | 38 | 1010.5 |
| 20260502234149 | 61 | 182 | 2.6 | 2.6 | 0.00 | 0.00 | 0.00 | 38 | 1010.7 |
| 20260502233645 | 61 | 231 | 2.6 | 3.5 | 0.00 | 0.00 | 0.00 | 39 | 1010.5 |
| 20260502233141 | 61 | 174 | 0.9 | 0.9 | 0.00 | 0.00 | 0.00 | 39 | 1010.7 |
| 20260502232637 | 61 | 185 | 2.6 | 2.6 | 0.00 | 0.00 | 0.00 | 37 | 1010.7 |
| 20260502232135 | 61 | 197 | 1.7 | 1.7 | 0.00 | 0.00 | 0.00 | 38 | 1010.9 |
| 20260502231631 | 61 | 209 | 0.9 | 2.6 | 0.00 | 0.00 | 0.00 | 39 | 1010.9 |
| 20260502231130 | 61 | 175 | 0.9 | 3.5 | 0.00 | 0.00 | 0.00 | 38 | 1011.0 |
| 20260502230627 | 61 | 238 | 3.5 | 6.1 | 0.00 | 0.00 | 0.00 | 37 | 1011.0 |
| 20260502230126 | 61 | 190 | 1.7 | 5.2 | 0.00 | 0.00 | 0.00 | 37 | 1011.0 |
| 20260502225620 | 61 | 191 | 1.7 | 3.5 | 0.00 | 0.00 | 0.00 | 36 | 1011.0 |
| 20260502225118 | 62 | 268 | 3.5 | 7.0 | 0.00 | 0.00 | 0.00 | 37 | 1011.1 |
| 20260502224614 | 62 | 185 | 2.6 | 5.2 | 0.00 | 0.00 | 0.00 | 36 | 1011.2 |
| 20260502224111 | 62 | 162 | 0.9 | 3.5 | 0.00 | 0.00 | 0.00 | 35 | 1011.3 |
| 20260502223609 | 62 | 231 | 3.5 | 3.5 | 0.00 | 0.00 | 0.00 | 38 | 1011.5 |
| 20260502223108 | 61 | 239 | 3.5 | 7.8 | 0.00 | 0.00 | 0.00 | 36 | 1011.5 |
| 20260502222604 | 61 | 223 | 5.2 | 5.2 | 0.00 | 0.00 | 0.00 | 36 | 1011.3 |
| 20260502222100 | 61 | 190 | 3.5 | 5.2 | 0.00 | 0.00 | 0.00 | 38 | 1011.5 |
| 20260502221556 | 60 | 228 | 3.5 | 6.1 | 0.00 | 0.00 | 0.00 | 37 | 1011.6 |
| 20260502221054 | 60 | 250 | 7.0 | 7.8 | 0.00 | 0.00 | 0.00 | 36 | 1011.5 |
| 20260502220549 | 60 | 238 | 3.5 | 6.1 | 0.00 | 0.00 | 0.00 | 37 | 1011.6 |
| 20260502220046 | 60 | 224 | 2.6 | 5.2 | 0.00 | 0.00 | 0.00 | 40 | 1011.7 |
| 20260502215543 | 60 | 264 | 4.3 | 5.2 | 0.00 | 0.00 | 0.00 | 38 | 1011.7 |
| 20260502215040 | 62 | 245 | 6.1 | 8.7 | 0.00 | 0.00 | 0.00 | 35 | 1011.8 |
| 20260502214537 | 62 | 188 | 4.3 | 7.8 | 0.00 | 0.00 | 0.00 | 36 | 1012.0 |
| 20260502214035 | 62 | 247 | 7.0 | 8.7 | 0.00 | 0.00 | 0.00 | 37 | 1011.9 |
| 20260502213531 | 61 | 304 | 1.7 | 5.2 | 0.00 | 0.00 | 0.00 | 35 | 1012.0 |
| 20260502213029 | 61 | 239 | 4.3 | 7.0 | 0.00 | 0.00 | 0.00 | 36 | 1012.0 |
| 20260502212528 | 61 | 250 | 8.7 | 11.3 | 0.00 | 0.00 | 0.00 | 37 | 1012.0 |
| 20260502212025 | 62 | 281 | 8.7 | 11.3 | 0.00 | 0.00 | 0.00 | 36 | 1011.8 |
| 20260502211521 | 61 | 243 | 3.5 | 5.2 | 0.00 | 0.00 | 0.00 | 35 | 1012.1 |
| 20260502211018 | 61 | 213 | 4.3 | 6.1 | 0.00 | 0.00 | 0.00 | 36 | 1012.0 |
| 20260502210515 | 62 | 238 | 3.5 | 6.1 | 0.00 | 0.00 | 0.00 | 34 | 1012.2 |
| 20260502210012 | 62 | 237 | 7.8 | 9.6 | 0.00 | 0.00 | 0.00 | 34 | 1012.4 |
| 20260502205508 | 61 | 309 | 2.6 | 6.1 | 0.00 | 0.00 | 0.00 | 36 | 1012.5 |
| 20260502205006 | 61 | 165 | 3.5 | 7.8 | 0.00 | 0.00 | 0.00 | 35 | 1012.5 |
| 20260502204502 | 60 | 201 | 2.6 | 3.5 | 0.00 | 0.00 | 0.00 | 35 | 1012.7 |
| 20260502204000 | 60 | 285 | 1.7 | 7.0 | 0.00 | 0.00 | 0.00 | 35 | 1012.8 |
| 20260502203457 | 59 | 246 | 4.3 | 7.8 | 0.00 | 0.00 | 0.00 | 37 | 1012.9 |
| 20260502202953 | 60 | 237 | 4.3 | 6.1 | 0.00 | 0.00 | 0.00 | 37 | 1012.9 |
| 20260502202450 | 60 | 214 | 2.6 | 7.0 | 0.00 | 0.00 | 0.00 | 35 | 1013.1 |
| 20260502201949 | 60 | 178 | 1.7 | 3.5 | 0.00 | 0.00 | 0.00 | 35 | 1013.0 |
| 20260502201444 | 60 | 212 | 4.3 | 7.0 | 0.00 | 0.00 | 0.00 | 35 | 1013.2 |
| 20260502200941 | 60 | 254 | 5.2 | 7.8 | 0.00 | 0.00 | 0.00 | 36 | 1013.3 |
| 20260502200437 | 60 | 248 | 5.2 | 6.1 | 0.00 | 0.00 | 0.00 | 35 | 1013.3 |
| 20260502195935 | 61 | 177 | 3.5 | 7.0 | 0.00 | 0.00 | 0.00 | 34 | 1013.2 |
| 20260502195431 | 60 | 252 | 1.7 | 2.6 | 0.00 | 0.00 | 0.00 | 36 | 1013.3 |
| 20260502194928 | 59 | 322 | 0.9 | 5.2 | 0.00 | 0.00 | 0.00 | 38 | 1013.5 |
| 20260502194425 | 60 | 271 | 5.2 | 7.8 | 0.00 | 0.00 | 0.00 | 37 | 1013.5 |
| 20260502193921 | 60 | 254 | 3.5 | 5.2 | 0.00 | 0.00 | 0.00 | 35 | 1013.6 |
| 20260502193418 | 59 | 212 | 2.6 | 6.1 | 0.00 | 0.00 | 0.00 | 35 | 1013.9 |
| 20260502192913 | 59 | 291 | 5.2 | 7.0 | 0.00 | 0.00 | 0.00 | 36 | 1013.9 |
| 20260502192411 | 59 | 318 | 4.3 | 8.7 | 0.00 | 0.00 | 0.00 | 34 | 1013.8 |
| 20260502191908 | 60 | 243 | 3.5 | 5.2 | 0.00 | 0.00 | 0.00 | 34 | 1014.1 |
| 20260502191406 | 59 | 29 | 1.7 | 6.1 | 0.00 | 0.00 | 0.00 | 34 | 1014.1 |
| 20260502190903 | 58 | 337 | 2.6 | 2.6 | 0.00 | 0.00 | 0.00 | 34 | 1014.3 |
| 20260502190400 | 58 | 293 | 3.5 | 6.1 | 0.00 | 0.00 | 0.00 | 36 | 1014.3 |
| 20260502185856 | 59 | 248 | 5.2 | 7.0 | 0.00 | 0.00 | 0.00 | 34 | 1014.4 |
| 20260502185351 | 59 | 224 | 3.5 | 6.1 | 0.00 | 0.00 | 0.00 | 35 | 1014.5 |
| 20260502184849 | 58 | 68 | 3.5 | 6.1 | 0.00 | 0.00 | 0.00 | 39 | 1014.5 |
| 20260502184344 | 58 | 265 | 1.7 | 6.1 | 0.00 | 0.00 | 0.00 | 33 | 1014.5 |
| 20260502183841 | 58 | 249 | 2.6 | 7.0 | 0.00 | 0.00 | 0.00 | 35 | 1014.6 |
| 20260502183337 | 57 | 251 | 5.2 | 6.1 | 0.00 | 0.00 | 0.00 | 34 | 1014.8 |
| 20260502182832 | 58 | 230 | 6.1 | 8.7 | 0.00 | 0.00 | 0.00 | 34 | 1014.9 |
| 20260502182328 | 58 | 180 | 2.6 | 3.5 | 0.00 | 0.00 | 0.00 | 32 | 1014.8 |
| 20260502181824 | 57 | 245 | 4.3 | 6.1 | 0.00 | 0.00 | 0.00 | 33 | 1015.0 |
| 20260502181324 | 57 | 250 | 1.7 | 6.1 | 0.00 | 0.00 | 0.00 | 34 | 1014.9 |
| 20260502180821 | 57 | 179 | 3.5 | 6.1 | 0.00 | 0.00 | 0.00 | 34 | 1015.1 |
| 20260502180318 | 57 | 303 | 2.6 | 5.2 | 0.00 | 0.00 | 0.00 | 33 | 1014.8 |
| 20260502170237 | 56 | 312 | 4.3 | 7.8 | 0.00 | 0.00 | 0.00 | 34 | 1016.0 |
| 20260502164225 | 56 | 239 | 5.2 | 5.2 | 0.00 | 0.00 | 0.00 | 33 | 1016.3 |
| 20260502163720 | 55 | 251 | 0.9 | 5.2 | 0.00 | 0.00 | 0.00 | 34 | 1016.3 |
| 20260502163217 | 55 | 169 | 6.1 | 7.8 | 0.00 | 0.00 | 0.00 | 37 | 1016.4 |
| 20260502162714 | 55 | 200 | 3.5 | 7.8 | 0.00 | 0.00 | 0.00 | 34 | 1016.5 |
| 20260502162210 | 55 | 338 | 2.6 | 5.2 | 0.00 | 0.00 | 0.00 | 35 | 1016.5 |
| 20260502161708 | 54 | 180 | 3.5 | 5.2 | 0.00 | 0.00 | 0.00 | 35 | 1016.7 |
| 20260502161204 | 54 | 341 | 2.6 | 5.2 | 0.00 | 0.00 | 0.00 | 35 | 1016.7 |
| 20260502160702 | 54 | 326 | 8.7 | 11.3 | 0.00 | 0.00 | 0.00 | 36 | 1016.6 |
| 20260502160201 | 54 | 298 | 3.5 | 7.0 | 0.00 | 0.00 | 0.00 | 37 | 1016.8 |
| 20260502152121 | 53 | 252 | 4.3 | 7.0 | 0.00 | 0.00 | 0.00 | 37 | 1017.0 |
| 20260502151618 | 53 | 257 | 6.1 | 7.0 | 0.00 | 0.00 | 0.00 | 36 | 1017.1 |
| 20260502151115 | 53 | 223 | 4.3 | 5.2 | 0.00 | 0.00 | 0.00 | 37 | 1017.1 |
| 20260502150613 | 53 | 310 | 1.7 | 2.6 | 0.00 | 0.00 | 0.00 | 35 | 1017.0 |
| 20260502150108 | 52 | 253 | 3.5 | 5.2 | 0.00 | 0.00 | 0.00 | 39 | 1017.0 |
| 20260502130457 | 40 | 227 | 0.9 | 1.7 | 0.00 | 0.00 | 0.00 | 66 | 1017.5 |
| 20260502123440 | 36 | 126 | 0.0 | 0.0 | 0.00 | 0.00 | 0.00 | 73 | 1017.6 |
| 20260502122937 | 35 | 126 | 0.0 | 0.0 | 0.00 | 0.00 | 0.00 | 73 | 1017.5 |
| 20260502122433 | 34 | 126 | 0.0 | 0.0 | 0.00 | 0.00 | 0.00 | 74 | 1017.5 |
| 20260502121931 | 33 | 126 | 0.0 | 0.0 | 0.00 | 0.00 | 0.00 | 75 | 1017.6 |
| 20260502121428 | 33 | 126 | 0.0 | 0.0 | 0.00 | 0.00 | 0.00 | 75 | 1017.5 |
| 20260502120926 | 32 | 126 | 0.0 | 0.0 | 0.00 | 0.00 | 0.00 | 76 | 1017.5 |
| 20260502120422 | 32 | 126 | 0.0 | 0.0 | 0.00 | 0.00 | 0.00 | 77 | 1017.6 |
| 20260502115919 | 31 | 126 | 0.0 | 0.0 | 0.00 | 0.00 | 0.00 | 77 | 1017.6 |
| 20260502115416 | 31 | 126 | 0.0 | 0.0 | 0.00 | 0.00 | 0.00 | 78 | 1017.6 |
| 20260502114912 | 30 | 126 | 0.0 | 0.0 | 0.00 | 0.00 | 0.00 | 79 | 1017.5 |
| 20260502114409 | 30 | 126 | 0.0 | 0.0 | 0.00 | 0.00 | 0.00 | 79 | 1017.6 |
| 20260502113906 | 30 | 126 | 0.0 | 0.0 | 0.00 | 0.00 | 0.00 | 79 | 1017.7 |
| 20260502113404 | 30 | 126 | 0.0 | 0.0 | 0.00 | 0.00 | 0.00 | 79 | 1017.5 |
| 20260502112902 | 30 | 126 | 0.0 | 0.0 | 0.00 | 0.00 | 0.00 | 79 | 1017.4 |
| 20260502112359 | 30 | 126 | 0.9 | 0.9 | 0.00 | 0.00 | 0.00 | 79 | 1017.4 |
| 20260502111856 | 30 | 126 | 0.0 | 0.9 | 0.00 | 0.00 | 0.00 | 78 | 1017.6 |
| 20260502111354 | 30 | 126 | 0.0 | 0.9 | 0.00 | 0.00 | 0.00 | 77 | 1017.4 |
| 20260502110851 | 30 | 126 | 0.0 | 0.9 | 0.00 | 0.00 | 0.00 | 77 | 1017.3 |
| 20260502110349 | 30 | 126 | 0.0 | 0.9 | 0.00 | 0.00 | 0.00 | 77 | 1017.5 |
| 20260502105846 | 30 | 126 | 0.0 | 0.9 | 0.00 | 0.00 | 0.00 | 76 | 1017.4 |
| 20260502105343 | 30 | 126 | 0.0 | 0.9 | 0.00 | 0.00 | 0.00 | 76 | 1017.4 |
| 20260502104841 | 30 | 126 | 0.9 | 0.9 | 0.00 | 0.00 | 0.00 | 74 | 1017.5 |
| 20260502104338 | 30 | 126 | 0.0 | 0.0 | 0.00 | 0.00 | 0.00 | 74 | 1017.5 |
| 20260502103835 | 30 | 126 | 0.9 | 0.9 | 0.00 | 0.00 | 0.00 | 75 | 1017.5 |
| 20260502103333 | 30 | 126 | 0.9 | 0.9 | 0.00 | 0.00 | 0.00 | 74 | 1017.6 |
| 20260502102830 | 30 | 126 | 0.0 | 0.9 | 0.00 | 0.00 | 0.00 | 75 | 1017.4 |
| 20260502102326 | 30 | 126 | 0.0 | 0.9 | 0.00 | 0.00 | 0.00 | 74 | 1017.4 |
| 20260502101824 | 31 | 126 | 0.0 | 0.0 | 0.00 | 0.00 | 0.00 | 75 | 1017.4 |
| 20260502101322 | 31 | 126 | 0.9 | 0.9 | 0.00 | 0.00 | 0.00 | 75 | 1017.3 |
| 20260502100820 | 31 | 126 | 0.9 | 0.9 | 0.00 | 0.00 | 0.00 | 76 | 1017.5 |
| 20260502100319 | 31 | 126 | 0.9 | 0.9 | 0.00 | 0.00 | 0.00 | 74 | 1017.5 |
| 20260502091253 | 34 | 126 | 0.9 | 0.9 | 0.00 | 0.00 | 0.00 | 66 | 1017.5 |
| 20260502090750 | 34 | 126 | 0.9 | 1.7 | 0.00 | 0.00 | 0.00 | 64 | 1017.5 |
| 20260502090247 | 34 | 126 | 1.7 | 1.7 | 0.00 | 0.00 | 0.00 | 64 | 1017.6 |
| 20260502071147 | 38 | 125 | 0.9 | 1.7 | 0.00 | 0.00 | 0.00 | 57 | 1018.0 |
| 20260502070645 | 38 | 125 | 1.7 | 1.7 | 0.00 | 0.00 | 0.00 | 56 | 1018.1 |
| 20260502070143 | 38 | 125 | 0.9 | 1.7 | 0.00 | 0.00 | 0.00 | 56 | 1017.9 |
| 20260502065641 | 38 | 125 | 0.9 | 1.7 | 0.00 | 0.00 | 0.00 | 58 | 1018.0 |
| 20260502065138 | 38 | 125 | 1.7 | 1.7 | 0.00 | 0.00 | 0.00 | 57 | 1018.0 |
| 20260502064637 | 38 | 125 | 0.9 | 1.7 | 0.00 | 0.00 | 0.00 | 57 | 1018.0 |
| 20260502064134 | 38 | 125 | 0.9 | 0.9 | 0.00 | 0.00 | 0.00 | 58 | 1018.2 |
| 20260502063632 | 38 | 125 | 0.9 | 1.7 | 0.00 | 0.00 | 0.00 | 56 | 1018.1 |
| 20260502063129 | 39 | 125 | 0.9 | 1.7 | 0.00 | 0.00 | 0.00 | 57 | 1018.1 |
| 20260502062626 | 38 | 125 | 1.7 | 1.7 | 0.00 | 0.00 | 0.00 | 58 | 1018.1 |
| 20260502062124 | 39 | 125 | 0.9 | 1.7 | 0.00 | 0.00 | 0.00 | 56 | 1018.1 |
| 20260502061622 | 38 | 125 | 0.9 | 0.9 | 0.00 | 0.00 | 0.00 | 57 | 1018.0 |
| 20260502061119 | 38 | 125 | 0.9 | 0.9 | 0.00 | 0.00 | 0.00 | 57 | 1018.2 |
| 20260502060619 | 38 | 125 | 0.9 | 1.7 | 0.00 | 0.00 | 0.00 | 57 | 1018.1 |
| 20260502060116 | 39 | 125 | 0.9 | 0.9 | 0.00 | 0.00 | 0.00 | 57 | 1018.3 |
| 20260502055614 | 39 | 125 | 0.9 | 1.7 | 0.00 | 0.00 | 0.00 | 56 | 1018.2 |
| 20260502055112 | 39 | 125 | 1.7 | 1.7 | 0.00 | 0.00 | 0.00 | 56 | 1018.0 |
| 20260502054610 | 39 | 125 | 0.9 | 1.7 | 0.00 | 0.00 | 0.00 | 56 | 1018.3 |
| 20260502054107 | 39 | 125 | 0.9 | 0.9 | 0.00 | 0.00 | 0.00 | 57 | 1018.2 |
| 20260502053604 | 38 | 125 | 0.9 | 1.7 | 0.00 | 0.00 | 0.00 | 59 | 1018.2 |
| 20260502053102 | 37 | 125 | 0.9 | 1.7 | 0.00 | 0.00 | 0.00 | 66 | 1018.3 |
| 20260502052600 | 37 | 125 | 0.9 | 0.9 | 0.00 | 0.00 | 0.00 | 68 | 1018.3 |
| 20260502052058 | 36 | 125 | 0.9 | 1.7 | 0.00 | 0.00 | 0.00 | 70 | 1018.1 |
| 20260502051556 | 36 | 125 | 0.0 | 0.0 | 0.00 | 0.00 | 0.00 | 69 | 1018.2 |
| 20260502051053 | 36 | 125 | 0.0 | 0.9 | 0.00 | 0.00 | 0.00 | 68 | 1018.1 |
| 20260502050549 | 36 | 125 | 0.9 | 0.9 | 0.00 | 0.00 | 0.00 | 68 | 1018.2 |
| 20260502050046 | 36 | 125 | 0.9 | 0.9 | 0.00 | 0.00 | 0.00 | 69 | 1018.2 |
| 20260502045543 | 36 | 125 | 0.9 | 0.9 | 0.00 | 0.00 | 0.00 | 68 | 1018.2 |
| 20260502045040 | 36 | 125 | 0.9 | 1.7 | 0.00 | 0.00 | 0.00 | 69 | 1018.2 |
| 20260502044536 | 36 | 125 | 0.0 | 0.0 | 0.00 | 0.00 | 0.00 | 70 | 1018.1 |
| 20260502044033 | 36 | 125 | 0.0 | 0.0 | 0.00 | 0.00 | 0.00 | 71 | 1018.1 |
| 20260502043531 | 36 | 125 | 0.0 | 0.0 | 0.00 | 0.00 | 0.00 | 71 | 1018.0 |
| 20260502043027 | 36 | 125 | 0.0 | 0.0 | 0.00 | 0.00 | 0.00 | 68 | 1018.2 |
| 20260502042522 | 36 | 125 | 0.9 | 1.7 | 0.00 | 0.00 | 0.00 | 70 | 1018.1 |
| 20260502042020 | 36 | 125 | 0.9 | 1.7 | 0.00 | 0.00 | 0.00 | 71 | 1018.1 |
| 20260502041517 | 36 | 125 | 0.9 | 1.7 | 0.00 | 0.00 | 0.00 | 70 | 1018.2 |
| 20260502041014 | 37 | 80 | 0.9 | 1.7 | 0.00 | 0.00 | 0.00 | 67 | 1018.1 |
| 20260502040511 | 37 | 79 | 0.9 | 1.7 | 0.00 | 0.00 | 0.00 | 65 | 1018.1 |
| 20260502040008 | 37 | 79 | 0.9 | 0.9 | 0.00 | 0.00 | 0.00 | 63 | 1018.2 |
| 20260502035503 | 38 | 79 | 0.9 | 0.9 | 0.00 | 0.00 | 0.00 | 62 | 1018.2 |
| 20260502035001 | 38 | 79 | 0.0 | 0.0 | 0.00 | 0.00 | 0.00 | 61 | 1018.3 |
| 20260502034459 | 38 | 79 | 0.0 | 0.0 | 0.00 | 0.00 | 0.00 | 62 | 1018.3 |
| 20260502033958 | 38 | 79 | 0.0 | 0.0 | 0.00 | 0.00 | 0.00 | 61 | 1018.3 |
| 20260502033455 | 39 | 79 | 0.0 | 0.0 | 0.00 | 0.00 | 0.00 | 59 | 1018.3 |
| 20260502032951 | 39 | 79 | 0.0 | 0.0 | 0.00 | 0.00 | 0.00 | 56 | 1018.2 |
| 20260502032448 | 39 | 79 | 0.0 | 0.0 | 0.00 | 0.00 | 0.00 | 56 | 1018.3 |
| 20260502031945 | 39 | 79 | 0.0 | 0.0 | 0.00 | 0.00 | 0.00 | 55 | 1018.1 |
| 20260502031443 | 40 | 79 | 0.0 | 0.0 | 0.00 | 0.00 | 0.00 | 54 | 1018.2 |
| 20260502030941 | 40 | 79 | 0.0 | 0.0 | 0.00 | 0.00 | 0.00 | 54 | 1018.3 |
| 20260502030439 | 40 | 79 | 0.0 | 0.9 | 0.00 | 0.00 | 0.00 | 57 | 1018.3 |
| 20260502025937 | 41 | 79 | 0.0 | 0.0 | 0.00 | 0.00 | 0.00 | 53 | 1018.2 |
| 20260502025433 | 41 | 79 | 0.0 | 0.9 | 0.00 | 0.00 | 0.00 | 53 | 1018.2 |
| 20260502024931 | 41 | 79 | 0.9 | 0.9 | 0.00 | 0.00 | 0.00 | 52 | 1018.2 |
| 20260502024430 | 42 | 79 | 0.0 | 0.9 | 0.00 | 0.00 | 0.00 | 50 | 1018.3 |
| 20260502023927 | 42 | 79 | 0.0 | 0.9 | 0.00 | 0.00 | 0.00 | 48 | 1018.3 |
| 20260502023424 | 43 | 79 | 0.0 | 0.9 | 0.00 | 0.00 | 0.00 | 47 | 1018.2 |
| 20260502022922 | 43 | 79 | 0.0 | 0.9 | 0.00 | 0.00 | 0.00 | 46 | 1018.2 |
| 20260502022418 | 43 | 79 | 0.0 | 0.9 | 0.00 | 0.00 | 0.00 | 45 | 1018.2 |
| 20260502021915 | 44 | 79 | 0.0 | 0.0 | 0.00 | 0.00 | 0.00 | 45 | 1018.0 |
| 20260502021412 | 44 | 79 | 0.0 | 0.0 | 0.00 | 0.00 | 0.00 | 46 | 1018.0 |
| 20260502020909 | 45 | 79 | 0.0 | 0.0 | 0.00 | 0.00 | 0.00 | 50 | 1017.9 |
| 20260502020408 | 45 | 79 | 0.0 | 0.9 | 0.00 | 0.00 | 0.00 | 47 | 1018.1 |
| 20260502015904 | 45 | 79 | 0.0 | 0.9 | 0.00 | 0.00 | 0.00 | 46 | 1017.9 |
| 20260502015401 | 46 | 79 | 0.0 | 0.9 | 0.00 | 0.00 | 0.00 | 45 | 1017.9 |
| 20260502014858 | 46 | 79 | 0.0 | 0.0 | 0.00 | 0.00 | 0.00 | 48 | 1017.8 |
| 20260502014355 | 46 | 79 | 0.0 | 0.0 | 0.00 | 0.00 | 0.00 | 43 | 1017.9 |
| 20260502013851 | 46 | 79 | 0.0 | 0.0 | 0.00 | 0.00 | 0.00 | 44 | 1017.8 |
| 20260502013347 | 46 | 79 | 0.0 | 0.0 | 0.00 | 0.00 | 0.00 | 43 | 1017.7 |
| 20260502012844 | 47 | 79 | 0.9 | 1.7 | 0.00 | 0.00 | 0.00 | 40 | 1017.6 |
| 20260502012342 | 47 | 30 | 0.0 | 0.9 | 0.00 | 0.00 | 0.00 | 42 | 1017.6 |
| 20260502011839 | 47 | 30 | 0.0 | 0.0 | 0.00 | 0.00 | 0.00 | 40 | 1017.6 |
| 20260502011334 | 48 | 30 | 0.0 | 0.0 | 0.00 | 0.00 | 0.00 | 38 | 1017.6 |
| 20260502010832 | 48 | 30 | 0.0 | 0.9 | 0.00 | 0.00 | 0.00 | 37 | 1017.5 |
| 20260502010328 | 48 | 30 | 0.0 | 0.0 | 0.00 | 0.00 | 0.00 | 37 | 1017.6 |